Regional Weather Roundup
Issued by NWS

Home | Current Version | Previous Version | Text Only | Print | Product List | Glossary Off
Versions: 1 2 3 4 5 6 7 8 9 10 11 12 13 14 15 16 17 18 19 20 21 22 23 24 25 26 27 28 29 30 31 32 33 34 35 36 37 38 39 40 41 42 43 44 45 46 47 48 49 50

000
ASUS43 KBIS 210310
RWRND

NORTH DAKOTA REGIONAL WEATHER ROUNDUP
NATIONAL WEATHER SERVICE BISMARCK ND
900 PM CST FRI JAN 20 2017

NOTE: "FAIR" INDICATES FEW OR NO CLOUDS BELOW 12,000 FEET WITH NO
SIGNIFICANT WEATHER AND/OR OBSTRUCTIONS TO VISIBILITY.


NDZ001>003-009>011-017-210400-
NORTHWEST NORTH DAKOTA

CITY           SKY/WX    TMP DP  RH WIND       PRES   REMARKS
WILLISTON      FAIR      27  24  89 S3        29.32F
MINOT          CLOUDY    29  27  92 SW5       29.34S
MINOT AFB      FRZ DRZL  27  25  93 SW9       29.34S FOG     WCI  17
$$

NDZ018>021-031>035-040>046-210400-
SOUTHWEST NORTH DAKOTA

CITY           SKY/WX    TMP DP  RH WIND       PRES   REMARKS
BISMARCK       CLOUDY    32  30  92 NW3       29.33F FOG
DICKINSON      FAIR      25  23  92 W8        29.29S WCI  16
GARRISON         N/A     24  23  96 W8        29.33F WCI  15
HETTINGER ARPT CLOUDY    27  24  89 NW8       29.33R WCI  19
$$

NDZ004>008-012>016-024-026-027-054-210400-
NORTHEAST NORTH DAKOTA

CITY           SKY/WX    TMP DP  RH WIND       PRES   REMARKS
GRAND FORKS    CLOUDY    36  33  89 SE13      29.44S
GRND FRKS AFB  CLOUDY    34  34 100 SE9       29.43S
DEVILS LAKE    MIX PCPN  33  32  96 SE9       29.39S VSB 3/4
$$

NDZ022-023-025-028>030-036>039-047>053-210400-
SOUTHEAST NORTH DAKOTA

CITY           SKY/WX    TMP DP  RH WIND       PRES   REMARKS
FARGO          CLOUDY    39  35  86 SE12      29.43F
JAMESTOWN      CLOUDY    33  33 100 SE12      29.35F FOG
$$





USA.gov is the U.S. government's official web portal to all federal, state and local government web resources and services.